When you browse on this site, cookies collect data to enhance your experience and personalize the content and advertising you see.
Visit our Privacy Policy to learn more. By continuing to use the site, you agree to this use of cookies and data.
  • In Czech Republic
  • List of Countries
  • For 7 days
  • Water Temperature
  • Satellite Maps
  • Weather Map
  • Weather Widgets
  • user-avatar
    Login

    Hourly Weather Sankt Polten

    Today, 23 May, Thursday

    Time Temperature Precipitation Wind Pressure Humidity
    00:00 +12°C° 0.3 mm 4 mps 736 mmHg 95%
    01:00 +11°C° 0.3 mm 3 mps 736 mmHg 96%
    02:00 +11°C° 0.1 mm 3 mps 736 mmHg 96%
    03:00 +11°C° 0.1 mm 3 mps 736 mmHg 96%
    04:00 +10°C° 0.1 mm 3 mps 737 mmHg 96%
    05:00 +11°C° 0.1 mm 3 mps 737 mmHg 94%
    06:00 +11°C° 0.1 mm 3 mps 737 mmHg 93%
    07:00 +11°C° 0.1 mm 3 mps 737 mmHg 91%
    08:00 +12°C° 0 mm 4 mps 737 mmHg 83%
    09:00 +14°C° 0 mm 4 mps 737 mmHg 76%
    10:00 +15°C° 0 mm 4 mps 737 mmHg 68%
    11:00 +17°C° 0 mm 4 mps 737 mmHg 62%
    12:00 +18°C° 0 mm 4 mps 737 mmHg 56%
    13:00 +19°C° 0 mm 4 mps 737 mmHg 51%
    14:00 +19°C° 0 mm 4 mps 736 mmHg 50%
    15:00 +19°C° 0 mm 3 mps 736 mmHg 49%
    16:00 +19°C° 0 mm 3 mps 736 mmHg 48%
    17:00 +18°C° 0 mm 2 mps 736 mmHg 57%
    18:00 +16°C° 0 mm 1 mps 736 mmHg 65%
    19:00 +15°C° 0 mm 1 mps 736 mmHg 73%
    20:00 +14°C° 0 mm 1 mps 736 mmHg 76%
    21:00 +12°C° 0 mm 1 mps 736 mmHg 79%
    22:00 +10°C° 0 mm 0 mps 737 mmHg 82%
    23:00 +11°C° 0 mm 1 mps 737 mmHg 82%

    Tomorrow, 24 May, Friday

    Time Temperature Precipitation Wind Pressure Humidity
    00:00 +10°C° 0 mm 1 mps 737 mmHg 83%
    01:00 +10°C° 0 mm 1 mps 737 mmHg 83%
    02:00 +10°C° 0 mm 1 mps 736 mmHg 84%
    03:00 +9°C° 0 mm 1 mps 736 mmHg 85%
    04:00 +9°C° 0 mm 1 mps 736 mmHg 86%
    05:00 +11°C° 0 mm 1 mps 736 mmHg 79%
    06:00 +13°C° 0 mm 1 mps 736 mmHg 73%
    07:00 +15°C° 0 mm 1 mps 736 mmHg 66%
    08:00 +18°C° 0 mm 1 mps 736 mmHg 59%
    09:00 +19°C° 0 mm 1 mps 736 mmHg 51%
    10:00 +21°C° 0 mm 1 mps 735 mmHg 44%
    11:00 +22°C° 0 mm 1 mps 735 mmHg 42%
    12:00 +23°C° 0 mm 1 mps 735 mmHg 39%
    13:00 +24°C° 0 mm 1 mps 735 mmHg 37%
    14:00 +23°C° 0 mm 1 mps 734 mmHg 38%
    15:00 +23°C° 0 mm 1 mps 734 mmHg 40%
    16:00 +23°C° 0 mm 1 mps 734 mmHg 41%
    17:00 +21°C° 0 mm 1 mps 734 mmHg 50%
    18:00 +19°C° 0 mm 1 mps 733 mmHg 59%
    19:00 +16°C° 0 mm 1 mps 733 mmHg 68%
    20:00 +15°C° 0 mm 1 mps 734 mmHg 69%
    21:00 +14°C° 0 mm 1 mps 734 mmHg 71%
    22:00 +12°C° 0 mm 1 mps 734 mmHg 73%
    23:00 +12°C° 0 mm 1 mps 734 mmHg 74%

    Day after tomorrow, 25 May, Saturday

    Time Temperature Precipitation Wind Pressure Humidity
    00:00 +12°C° 0 mm 1 mps 734 mmHg 74%
    01:00 +11°C° 0 mm 1 mps 734 mmHg 75%
    02:00 +11°C° 0 mm 1 mps 734 mmHg 76%
    03:00 +11°C° 0 mm 1 mps 734 mmHg 77%
    04:00 +11°C° 0 mm 1 mps 734 mmHg 79%
    05:00 +13°C° 0 mm 1 mps 734 mmHg 73%
    06:00 +15°C° 0 mm 1 mps 734 mmHg 68%
    07:00 +16°C° 0 mm 0 mps 734 mmHg 62%
    08:00 +18°C° 0 mm 0 mps 734 mmHg 57%
    09:00 +22°C° 0 mm 1 mps 735 mmHg 51%
    10:00 +24°C° 0 mm 1 mps 735 mmHg 46%
    11:00 +25°C° 0 mm 1 mps 734 mmHg 44%
    12:00 +25°C° 0 mm 1 mps 734 mmHg 41%
    13:00 +26°C° 0 mm 1 mps 734 mmHg 39%
    14:00 +26°C° 0 mm 1 mps 734 mmHg 40%
    15:00 +26°C° 0 mm 1 mps 733 mmHg 41%
    16:00 +26°C° 0 mm 1 mps 733 mmHg 42%
    17:00 +24°C° 0 mm 1 mps 733 mmHg 51%
    18:00 +22°C° 0 mm 1 mps 733 mmHg 61%
    19:00 +20°C° 0 mm 1 mps 733 mmHg 70%
    20:00 +18°C° 0 mm 1 mps 733 mmHg 75%
    21:00 +16°C° 0 mm 1 mps 734 mmHg 79%
    22:00 +15°C° 0 mm 1 mps 734 mmHg 84%
    23:00 +14°C° 0 mm 1 mps 734 mmHg 86%

    26 May, Sunday

    Time Temperature Precipitation Wind Pressure Humidity
    00:00 +14°C° 0 mm 1 mps 734 mmHg 88%
    01:00 +14°C° 0 mm 1 mps 734 mmHg 90%
    02:00 +13°C° 0 mm 1 mps 734 mmHg 91%
    03:00 +13°C° 0 mm 1 mps 733 mmHg 92%
    04:00 +13°C° 0 mm 1 mps 733 mmHg 93%
    05:00 +14°C° 0 mm 1 mps 734 mmHg 87%
    06:00 +16°C° 0 mm 1 mps 734 mmHg 81%
    07:00 +19°C° 0 mm 1 mps 734 mmHg 75%
    08:00 +19°C° 0.1 mm 2 mps 734 mmHg 73%
    09:00 +20°C° 0.1 mm 3 mps 734 mmHg 71%
    10:00 +21°C° 0.1 mm 3 mps 734 mmHg 70%
    11:00 +21°C° 0.3 mm 4 mps 734 mmHg 67%
    12:00 +22°C° 0.3 mm 4 mps 734 mmHg 65%
    13:00 +22°C° 0.3 mm 4 mps 734 mmHg 63%
    14:00 +22°C° 0.3 mm 4 mps 734 mmHg 61%
    15:00 +22°C° 0.3 mm 4 mps 734 mmHg 60%
    16:00 +22°C° 0.3 mm 3 mps 734 mmHg 59%
    17:00 +21°C° 0 mm 3 mps 734 mmHg 64%
    18:00 +19°C° 0 mm 2 mps 734 mmHg 70%
    19:00 +19°C° 0 mm 1 mps 734 mmHg 76%
    20:00 +16°C° 0 mm 1 mps 735 mmHg 80%
    21:00 +14°C° 0 mm 1 mps 735 mmHg 84%
    22:00 +12°C° 0 mm 0 mps 735 mmHg 88%
    23:00 +11°C° 0 mm 0 mps 735 mmHg 88%

    27 May, Monday

    Time Temperature Precipitation Wind Pressure Humidity
    00:00 +11°C° 0 mm 0 mps 735 mmHg 89%
    01:00 +10°C° 0 mm 0 mps 735 mmHg 90%
    02:00 +10°C° 0 mm 0 mps 735 mmHg 90%
    03:00 +11°C° 0 mm 1 mps 735 mmHg 91%
    04:00 +10°C° 0 mm 1 mps 735 mmHg 92%
    05:00 +12°C° 0 mm 1 mps 735 mmHg 85%
    06:00 +14°C° 0 mm 1 mps 735 mmHg 78%
    07:00 +16°C° 0 mm 1 mps 735 mmHg 71%
    08:00 +19°C° 0 mm 1 mps 735 mmHg 67%
    09:00 +20°C° 0 mm 1 mps 735 mmHg 63%
    10:00 +20°C° 0 mm 2 mps 735 mmHg 60%
    11:00 +20°C° 0.1 mm 2 mps 734 mmHg 62%
    12:00 +21°C° 0.1 mm 2 mps 734 mmHg 64%
    13:00 +21°C° 0.1 mm 2 mps 734 mmHg 66%
    14:00 +21°C° 0 mm 2 mps 733 mmHg 64%
    15:00 +23°C° 0 mm 2 mps 733 mmHg 63%
    16:00 +23°C° 0 mm 2 mps 732 mmHg 61%
    17:00 +21°C° 0 mm 2 mps 732 mmHg 67%
    18:00 +19°C° 0 mm 2 mps 732 mmHg 72%
    19:00 +19°C° 0 mm 1 mps 731 mmHg 78%
    20:00 +18°C° 0 mm 1 mps 731 mmHg 81%
    21:00 +16°C° 0 mm 1 mps 731 mmHg 84%
    22:00 +14°C° 0 mm 1 mps 731 mmHg 87%
    23:00 +14°C° 0 mm 1 mps 731 mmHg 88%

    28 May, Tuesday

    Time Temperature Precipitation Wind Pressure Humidity
    00:00 +14°C° 0 mm 1 mps 731 mmHg 88%
    01:00 +13°C° 0 mm 1 mps 730 mmHg 88%
    02:00 +13°C° 0 mm 1 mps 730 mmHg 88%
    03:00 +13°C° 0 mm 1 mps 730 mmHg 88%
    04:00 +13°C° 0 mm 1 mps 730 mmHg 88%
    05:00 +14°C° 0 mm 1 mps 730 mmHg 86%
    06:00 +15°C° 0 mm 1 mps 729 mmHg 84%
    07:00 +18°C° 0 mm 1 mps 729 mmHg 81%
    08:00 +18°C° 0.2 mm 1 mps 729 mmHg 83%
    09:00 +18°C° 0.2 mm 1 mps 729 mmHg 84%
    10:00 +18°C° 0.2 mm 1 mps 729 mmHg 85%
    11:00 +20°C° 0.1 mm 1 mps 729 mmHg 79%
    12:00 +21°C° 0.1 mm 1 mps 728 mmHg 72%
    13:00 +22°C° 0.1 mm 1 mps 728 mmHg 66%
    14:00 +23°C° 0 mm 1 mps 728 mmHg 63%
    15:00 +23°C° 0 mm 1 mps 727 mmHg 60%
    16:00 +24°C° 0 mm 1 mps 727 mmHg 57%
    17:00 +23°C° 0.1 mm 1 mps 727 mmHg 64%
    18:00 +19°C° 0.1 mm 0 mps 727 mmHg 72%
    19:00 +18°C° 0.1 mm 0 mps 726 mmHg 80%
    20:00 +16°C° 0 mm 0 mps 727 mmHg 84%
    21:00 +16°C° 0 mm 1 mps 727 mmHg 88%
    22:00 +15°C° 0 mm 1 mps 727 mmHg 92%
    23:00 +15°C° 0 mm 1 mps 727 mmHg 93%
    Show more